FENGYUN 1C DEB, 30361

Orbit data source: Space-Track

FENGYUN 1C DEB, 30361 is space debris in SSO originally from a launch on Mon, 10 May 1999 UTC launched from the Taiyaun Space Center, China (TSC). Fengyun 1C debris stems from the Chinese weather satellite Fengyun-1C, which was intentionally destroyed by a Chinese anti-satellite missile in 2007. This event dramatically increased the amount of space debris, with thousands of trackable fragments posing hazards to satellites and human spaceflight. The Fengyun 1C debris cloud has become a focal point in discussions about space sustainability and the need for international regulations to prevent the creation of new debris.

Loading next visibility...
Identifier
30361, 1999-025ABY
Orbit
SSO
Country
Flag of CNCN / PRC
Related business
Manufacturer
Unknown
Mission
Spacecraft
Bus & Motor
Unknown
Mass
Unknown
Launch date (UTC)
1999-05-10 (27 years ago)
Launch vehicle
Unknown
Launch site
Taiyaun Space Center, China (TSC)
Object type
Payload
Rocket body
Debris
Shape & HBR
Unknown shape, 0.1 m
Radar Cross Section
Small (<0.1 m²)

Expand to show TLE details & history
Last TLE update: 1 day ago

TLE from 1 day ago
0 FENGYUN 1C DEB
1 30361U 99025ABY 26070.58922620  .00002294  00000-0  96039-3 0  9994
2 30361  98.5590 109.4718 0067037 130.9758 229.7249 14.25777256988823
Epoch: 2026-03-11T14:08Z
TLE epoch observation values (Epoch: 2026-03-11T14:08:29.143Z)
Latitude
0.00003°
Longitude
88.09907°
Altitude
840.134 km
Speed
7.417 km/s
True Right ascension
07h 17m 53s
True Declination
0° 00' 00"
Sunlit
Object was in partial shadow at epoch
Visualization orbit readout
Latitude
Unknown
Longitude
Unknown
Altitude
Unknown
Speed
Unknown
Apparent Right ascension
Unknown
Apparent Declination
Unknown
Sunlit
N/A
Visualization observer readout
Local Sidereal Time
02:25:29
Azimuth
Unknown
Elevation
Unknown
Doppler factor
Unknown
Orbital elements
Apogee altitude
851.164 km
Perigee altitude
754.884 km
Semi-major axis
7,181.161 km
Eccentricity
0.0067
Inclination
98.559°
RAAN
109.4718°
Arg. of periapsis
130.9758°
True anomaly
229.14198°
Mean anomaly
229.7249°
Eccentric anomaly
229.43312°
Mean motion
3.56657 °/min
Orbital period
100.94 mins
BSTAR
0.00096039
Loading maneuver chart data...
Computing Atmospheric mass density...

Documentation

Showing up to 5 results
|